Change the Weather History Date:

Wednesday, April 17, 2013

  Actual Average (KBGD) Record (KBGD)
Temperature  
Mean Temperature 40 °F 59 °F  
Max Temperature 48 °F 73 °F 93 °F (2006)
Min Temperature 32 °F 45 °F 32 °F (1998)
Degree Days  
Heating Degree Days 25 7  
Month to date heating degree days 153  
Since 1 July heating degree days 3630  
Cooling Degree Days 0 1  
Month to date cooling degree days 14  
Year to date cooling degree days 21  
Moisture  
Dew Point 37 °F    
Average Humidity 94    
Maximum Humidity 99    
Minimum Humidity 75    
Precipitation  
Precipitation 0.00 in 0.06 in 1.63 in (1988)
Month to date precipitation 0.95  
Year to date precipitation 3.57  
Snow  
Snow 0.00 in - T in (1992)
Month to date snowfall  
Since 1 July snowfall  
Snow Depth -    
Sea Level Pressure  
Sea Level Pressure 29.80 in    
Wind  
Wind Speed 14 mph (NNE)    
Max Wind Speed 30 mph    
Max Gust Speed 39 mph    
Visibility 5 miles    
Events      
T = Trace of Precipitation, MM = Missing Value Source: NWS Daily Summary

Daily Weather History Graph

Daily Weather History Graph

Search for Another Location

Airport or City:

Trip Planner

Search our weather history database for the weather conditions in past years. The results will help you decide how hot, cold, wet, or windy it might be!

Date:

Astronomy

Apr. 17, 2013 Rise Set
Actual Time 7:12 AM CDT 8:23 PM CDT
Civil Twilight 6:45 AM CDT 8:50 PM CDT
Nautical Twilight 6:14 AM CDT 9:21 PM CDT
Astronomical Twilight 5:41 AM CDT 9:54 PM CDT
Moon 12:31 PM CDT (4/17) 1:58 AM CDT (4/17)
Length of Visible Light 14h 04m
Length of Day
13h 11m
Waxing Crescent, 42% of the Moon is Illuminated
Apr 17
Waxing Crescent
Apr 18
First Quarter
Apr 25
Full
May 2
Last Quarter
May 9
New

Hourly Weather History & Observations

Time (CDT) Temp. Windchill Dew Point Humidity Pressure Visibility Wind Dir Wind Speed Gust Speed Precip Events Conditions
12:15 AM 47.8 °F - 40.3 °F 75% 29.85 in 10.0 mi ESE 12.7 mph - N/A   Scattered Clouds
12:35 AM 46.8 °F - 40.5 °F 79% 29.85 in 10.0 mi East 10.4 mph - N/A   Scattered Clouds
12:55 AM 46.4 °F 41.9 °F 41.0 °F 81% 29.84 in 10.0 mi ESE 9.2 mph - N/A   Mostly Cloudy
1:15 AM 47.5 °F - 41.7 °F 80% 29.84 in 10.0 mi ESE 9.2 mph - N/A   Overcast
1:35 AM 48.4 °F - 41.9 °F 78% 29.83 in 10.0 mi ESE 13.8 mph - N/A   Overcast
1:55 AM 48.6 °F - 42.1 °F 78% 29.83 in 10.0 mi East 12.7 mph - N/A   Overcast
2:15 AM 48.6 °F - 42.1 °F 78% 29.83 in 10.0 mi ESE 11.5 mph - N/A   Overcast
2:35 AM 47.5 °F - 41.2 °F 79% 29.83 in 10.0 mi East 10.4 mph - N/A   Overcast
2:55 AM 46.2 °F 41.2 °F 39.9 °F 79% 29.83 in 10.0 mi NE 10.4 mph - N/A   Overcast
3:15 AM 43.2 °F 37.0 °F 41.5 °F 94% 29.82 in 2.0 mi ENE 11.5 mph - N/A   Overcast
3:35 AM 42.4 °F 37.0 °F 41.9 °F 98% 29.83 in 1.5 mi ENE 9.2 mph - N/A   Overcast
3:55 AM 42.3 °F 36.3 °F 41.9 °F 99% 29.83 in 1.5 mi NE 10.4 mph - N/A   Overcast
4:15 AM 42.1 °F 35.7 °F 41.5 °F 98% 29.82 in 1.8 mi ENE 11.5 mph - N/A   Overcast
4:35 AM 41.5 °F 35.9 °F 41.0 °F 98% 29.83 in 1.8 mi NE 9.2 mph - N/A   Overcast
4:55 AM 41.2 °F 36.0 °F 41.0 °F 99% 29.83 in 1.8 mi NE 8.1 mph 11.5 mph N/A   Overcast
5:15 AM 41.0 °F 34.3 °F 40.5 °F 98% 29.82 in 1.8 mi ENE 11.5 mph - N/A   Overcast
5:35 AM 40.6 °F 34.3 °F 40.3 °F 99% 29.83 in 1.8 mi NE 10.4 mph - N/A   Overcast
5:55 AM 40.6 °F 33.4 °F 40.3 °F 99% 29.82 in 1.5 mi NE 12.7 mph - N/A   Overcast
6:15 AM 40.5 °F 35.1 °F 40.1 °F 99% 29.82 in 1.5 mi NE 8.1 mph - N/A   Overcast
6:35 AM 40.3 °F 33.4 °F 40.1 °F 99% 29.82 in 1.5 mi NE 11.5 mph - N/A   Overcast
6:55 AM 40.1 °F 33.2 °F 39.7 °F 99% 29.82 in 1.8 mi NE 11.5 mph - N/A   Overcast
7:15 AM 40.1 °F 33.2 °F 39.6 °F 98% 29.82 in 1.5 mi NE 11.5 mph - N/A   Overcast
7:35 AM 39.4 °F 31.8 °F 39.0 °F 99% 29.83 in 1.5 mi NNE 12.7 mph - N/A   Overcast
7:55 AM 38.5 °F 29.6 °F 38.3 °F 99% 29.83 in 1.0 mi NNE 16.1 mph 19.6 mph N/A   Overcast
8:15 AM 37.9 °F 30.0 °F 37.6 °F 99% 29.83 in 1.2 mi NNE 12.7 mph - N/A   Overcast
8:35 AM 37.4 °F 28.9 °F 37.0 °F 99% 29.83 in 1.2 mi NNE 13.8 mph - N/A   Overcast
9:15 AM 37.0 °F 28.5 °F 36.7 °F 99% 29.84 in 1.8 mi NNE 13.8 mph - N/A   Overcast
9:35 AM 36.7 °F 28.0 °F 36.3 °F 99% 29.83 in 1.8 mi NNE 13.8 mph - N/A   Overcast
9:55 AM 37.0 °F 28.5 °F 36.5 °F 98% 29.84 in 1.5 mi NNE 13.8 mph - N/A   Overcast
10:15 AM 36.9 °F 27.5 °F 36.3 °F 98% 29.83 in 1.8 mi NNE 16.1 mph - N/A   Overcast
10:35 AM 36.3 °F 27.5 °F 35.8 °F 98% 29.83 in 2.5 mi NNE 13.8 mph 19.6 mph N/A   Overcast
10:55 AM 36.5 °F 27.4 °F 35.8 °F 97% 29.83 in 3.0 mi NNE 15.0 mph - N/A   Overcast
11:15 AM 36.3 °F 28.0 °F 35.8 °F 98% 29.83 in 4.0 mi NNE 12.7 mph - N/A   Overcast
11:35 AM 36.5 °F 27.8 °F 35.8 °F 97% 29.83 in 4.0 mi North 13.8 mph - N/A   Overcast
11:55 AM 36.7 °F 28.4 °F 36.0 °F 97% 29.83 in 3.0 mi North 12.7 mph - N/A   Overcast
12:15 PM 37.0 °F 28.5 °F 36.1 °F 97% 29.83 in 5.0 mi NNE 13.8 mph - N/A   Overcast
12:35 PM 37.0 °F 28.9 °F 36.1 °F 97% 29.82 in 5.0 mi NNE 12.7 mph - N/A   Overcast
12:55 PM 37.4 °F 28.2 °F 36.5 °F 97% 29.81 in 4.0 mi NNE 16.1 mph - N/A   Overcast
1:15 PM 37.6 °F 30.0 °F 36.5 °F 96% 29.80 in 5.0 mi NNE 11.5 mph - N/A   Overcast
1:35 PM 37.8 °F 29.0 °F 36.9 °F 97% 29.78 in 7.0 mi NNE 15.0 mph 19.6 mph N/A   Overcast
1:55 PM 37.9 °F 28.5 °F 36.7 °F 95% 29.76 in 7.0 mi NNE 17.3 mph 20.7 mph N/A   Overcast
2:15 PM 39.0 °F 30.6 °F 37.4 °F 94% 29.75 in 5.0 mi NNE 15.0 mph - N/A   Overcast
2:35 PM 39.2 °F 29.8 °F 37.4 °F 93% 29.74 in 4.0 mi NNE 18.4 mph - N/A   Overcast
2:55 PM 39.9 °F 32.1 °F 38.1 °F 93% 29.74 in 7.0 mi North 13.8 mph - N/A   Overcast
3:35 PM 39.0 °F 29.9 °F 37.4 °F 94% 29.72 in 4.0 mi NNE 17.3 mph - N/A   Overcast
3:55 PM 39.4 °F 31.1 °F 37.6 °F 93% 29.73 in 5.0 mi NNE 15.0 mph - N/A   Overcast
4:15 PM 38.8 °F 30.0 °F 37.4 °F 95% 29.73 in 4.0 mi North 16.1 mph - N/A   Overcast
4:35 PM 39.2 °F 29.8 °F 37.2 °F 93% 29.71 in 5.0 mi NNE 18.4 mph - N/A   Overcast
4:55 PM 38.5 °F 29.2 °F 37.2 °F 95% 29.70 in 3.0 mi NNE 17.3 mph 24.2 mph N/A   Overcast
5:15 PM 38.5 °F 28.9 °F 37.4 °F 96% 29.69 in 3.0 mi NNE 18.4 mph 24.2 mph N/A   Overcast
5:35 PM 37.8 °F 27.7 °F 36.9 °F 97% 29.69 in 2.5 mi NNE 19.6 mph 26.5 mph N/A   Overcast
5:55 PM 37.6 °F 27.7 °F 36.7 °F 97% 29.69 in 3.0 mi NNE 18.4 mph 26.5 mph N/A   Overcast
6:15 PM 37.4 °F 27.5 °F 36.5 °F 97% 29.70 in 2.0 mi NNE 18.4 mph - N/A   Overcast
6:35 PM 37.2 °F 28.7 °F 36.5 °F 97% 29.72 in 2.0 mi NNE 13.8 mph 21.9 mph N/A   Overcast
6:55 PM 36.7 °F 26.6 °F 36.0 °F 97% 29.71 in 2.5 mi NNE 18.4 mph 24.2 mph N/A   Overcast
7:15 PM 36.5 °F 26.7 °F 35.6 °F 97% 29.73 in 2.0 mi North 17.3 mph - N/A   Overcast
7:35 PM 36.0 °F 26.0 °F 35.6 °F 99% 29.73 in 3.0 mi North 17.3 mph 26.5 mph N/A   Overcast
7:55 PM 36.0 °F 24.7 °F 35.4 °F 98% 29.74 in 3.0 mi North 21.9 mph 27.6 mph N/A   Overcast
8:15 PM 34.3 °F 22.3 °F 33.8 °F 98% 29.75 in 4.0 mi North 23.0 mph 29.9 mph N/A   Overcast
8:35 PM 33.8 °F 21.0 °F 32.9 °F 96% 29.77 in 7.0 mi North 25.3 mph 31.1 mph N/A   Overcast
8:55 PM 33.4 °F 20.1 °F 32.9 °F 98% 29.78 in 5.0 mi North 27.6 mph 33.4 mph N/A   Overcast
9:15 PM 33.1 °F 20.6 °F 32.2 °F 96% 29.80 in 10.0 mi North 23.0 mph 33.4 mph N/A   Overcast
9:55 PM 32.5 °F 18.4 °F 31.8 °F 97% 29.86 in 4.0 mi North 29.9 mph 38.0 mph N/A   Overcast
10:15 PM 32.4 °F 18.6 °F 31.8 °F 98% 29.87 in 5.0 mi North 27.6 mph 36.8 mph N/A   Overcast
10:35 PM 32.4 °F 18.4 °F 31.5 °F 96% 29.89 in 10.0 mi North 28.8 mph 36.8 mph N/A   Overcast
10:55 PM 32.4 °F 19.1 °F 30.4 °F 92% 29.90 in 10.0 mi North 25.3 mph 39.1 mph N/A   Overcast
11:15 PM 32.2 °F 18.9 °F 30.2 °F 92% 29.91 in 10.0 mi North 25.3 mph 33.4 mph N/A   Overcast
11:35 PM 32.2 °F 18.4 °F 30.0 °F 92% 29.93 in 10.0 mi North 27.6 mph 38.0 mph N/A   Overcast
11:55 PM 32.0 °F 18.1 °F 30.2 °F 93% 29.93 in 10.0 mi North 27.6 mph 32.2 mph N/A   Overcast